Estación de Sagrada Familia
Ultimos registro cada 15 minutos 39
| N° | Estación | Fecha / Hora | Temperatura | Humedad | Lluvia | Velocidad | Dirección | Radiación | Presion |
| 39 | Sagrada Familia | 10-05-2026 09:30 | 6,8 | 97 | 0 | 0 | 94 | 299 | 1016,8 |
| 38 | Sagrada Familia | 10-05-2026 09:15 | 6,2 | 97 | 0 | 0 | 53 | 264 | 1016,8 |
| 37 | Sagrada Familia | 10-05-2026 09:00 | 5,2 | 97 | 0 | 0 | 132 | 98 | 1016,7 |
| 36 | Sagrada Familia | 10-05-2026 08:45 | 3,8 | 96 | 0 | 0 | 173 | 42 | 1016,5 |
| 35 | Sagrada Familia | 10-05-2026 08:30 | 2,6 | 96 | 0 | 0 | 173 | 100 | 1016,3 |
| 34 | Sagrada Familia | 10-05-2026 08:15 | 1,8 | 95 | 0 | 0 | 168 | 32 | 1016 |
| 33 | Sagrada Familia | 10-05-2026 08:00 | 1,3 | 95 | 0 | 0 | 168 | 23 | 1015,9 |
| 32 | Sagrada Familia | 10-05-2026 07:45 | 0,9 | 95 | 0 | 0 | 168 | 16 | 1016 |
| 31 | Sagrada Familia | 10-05-2026 07:30 | 0,7 | 94 | 0 | 0 | 168 | 5 | 1015,9 |
| 30 | Sagrada Familia | 10-05-2026 07:15 | 0,8 | 94 | 0 | 0 | 168 | 0 | 1016 |
| 29 | Sagrada Familia | 10-05-2026 07:00 | 1 | 94 | 0 | 0 | 168 | 0 | 1016 |
| 28 | Sagrada Familia | 10-05-2026 06:45 | 1,2 | 94 | 0 | 0 | 168 | 0 | 1016 |
| 27 | Sagrada Familia | 10-05-2026 06:30 | 1,3 | 94 | 0 | 0 | 168 | 0 | 1015,8 |
| 26 | Sagrada Familia | 10-05-2026 06:15 | 1,4 | 94 | 0 | 0 | 168 | 0 | 1015,7 |
| 25 | Sagrada Familia | 10-05-2026 06:00 | 1,6 | 94 | 0 | 0 | 168 | 0 | 1015,6 |
| 24 | Sagrada Familia | 10-05-2026 05:45 | 1,7 | 94 | 0 | 0 | 168 | 0 | 1015,8 |
| 23 | Sagrada Familia | 10-05-2026 05:30 | 1,9 | 94 | 0 | 0 | 168 | 0 | 1015,7 |
| 22 | Sagrada Familia | 10-05-2026 05:15 | 2,1 | 93 | 0 | 0 | 168 | 0 | 1015,6 |
| 21 | Sagrada Familia | 10-05-2026 05:00 | 2,4 | 93 | 0 | 0 | 168 | 0 | 1015,6 |
| 20 | Sagrada Familia | 10-05-2026 04:45 | 2,8 | 94 | 0 | 0 | 168 | 0 | 1015,6 |
| 19 | Sagrada Familia | 10-05-2026 04:30 | 2,8 | 94 | 0 | 0 | 168 | 0 | 1015,6 |
| 18 | Sagrada Familia | 10-05-2026 04:15 | 2,7 | 94 | 0 | 0 | 168 | 0 | 1015,7 |
| 17 | Sagrada Familia | 10-05-2026 04:00 | 2,8 | 93 | 0 | 0 | 173 | 0 | 1015,6 |
| 16 | Sagrada Familia | 10-05-2026 03:45 | 2,9 | 94 | 0 | 0 | 149 | 0 | 1015,5 |
| 15 | Sagrada Familia | 10-05-2026 03:30 | 3 | 94 | 0 | 0 | 149 | 0 | 1015,6 |
| 14 | Sagrada Familia | 10-05-2026 03:15 | 3,1 | 93 | 0 | 0 | 149 | 0 | 1015,6 |
| 13 | Sagrada Familia | 10-05-2026 03:00 | 3,2 | 93 | 0 | 0 | 149 | 0 | 1015,8 |
| 12 | Sagrada Familia | 10-05-2026 02:45 | 3,3 | 93 | 0 | 0 | 149 | 0 | 1016 |
| 11 | Sagrada Familia | 10-05-2026 02:30 | 3,4 | 93 | 0 | 0 | 149 | 0 | 1016,2 |
| 10 | Sagrada Familia | 10-05-2026 02:15 | 3,6 | 93 | 0 | 0 | 149 | 0 | 1016,2 |
| 9 | Sagrada Familia | 10-05-2026 02:00 | 3,5 | 92 | 0 | 0 | 149 | 0 | 1016,3 |
| 8 | Sagrada Familia | 10-05-2026 01:45 | 3,8 | 92 | 0 | 0 | 124 | 0 | 1016,4 |
| 7 | Sagrada Familia | 10-05-2026 01:30 | 4,4 | 93 | 0 | 0 | 124 | 0 | 1016,6 |
| 6 | Sagrada Familia | 10-05-2026 01:15 | 4,2 | 93 | 0 | 0 | 124 | 0 | 1016,4 |
| 5 | Sagrada Familia | 10-05-2026 01:00 | 4,2 | 92 | 0 | 0 | 124 | 0 | 1016,5 |
| 4 | Sagrada Familia | 10-05-2026 00:45 | 4,3 | 92 | 0 | 0 | 124 | 0 | 1016,5 |
| 3 | Sagrada Familia | 10-05-2026 00:30 | 4,5 | 92 | 0 | 0 | 124 | 0 | 1016,7 |
| 2 | Sagrada Familia | 10-05-2026 00:15 | 4,5 | 91 | 0 | 0 | 105 | 0 | 1016,6 |
| 1 | Sagrada Familia | 10-05-2026 00:00 | 4,8 | 91 | 0 | 0 | 46 | 0 | 1016,5 |